GW0704 Weather Reports


Display with metric or nautical units.
time (UTC)temp
F
wind
direction
speed
MPH
gust
MPH
rain 1hr
in
rain 24hr
in
rain mn
in
humidity
%
barometer
mb
20260507060904 46 83 0.0 9.0 0.00 0.86 0.02 94 1003.1
20260507055904 46 82 2.0 8.0 0.00 0.86 0.02 94 1003.0
20260507055404 46 85 2.0 9.0 0.00 0.86 0.02 94 1002.9
20260507054904 47 85 3.0 9.0 0.00 0.86 0.02 94 1002.7
20260507054403 46 79 1.0 10.0 0.00 0.86 0.02 95 1002.5
20260507053904 47 107 0.0 0.0 0.00 0.86 0.02 95 1002.8
20260507053404 47 107 0.0 0.0 0.00 0.86 0.02 95 1002.7
20260507052904 47 107 0.0 0.0 0.00 0.86 0.02 95 1002.8
20260507052404 47 107 0.0 0.0 0.01 0.86 0.02 95 1002.3
20260507051904 47 107 0.0 0.0 0.01 0.86 0.02 94 1002.7
20260507050904 47 107 2.0 7.0 0.02 0.86 0.02 94 1002.8
20260507050404 47 107 3.0 9.0 0.02 0.86 0.02 94 1002.7
20260507045904 47 80 3.0 9.0 0.02 0.86 0.02 94 1002.8
20260507045404 47 117 0.0 0.0 0.02 0.86 0.02 94 1003.0
20260507044904 47 117 0.0 0.0 0.02 0.86 0.02 94 1002.9
20260507044404 47 117 1.0 9.0 0.02 0.86 0.02 94 1002.7
20260507043904 47 115 5.0 12.0 0.03 0.86 0.02 94 1002.8
20260507043404 47 80 3.0 10.0 0.03 0.86 0.02 94 1003.1
20260507041904 48 86 1.0 12.0 0.03 0.85 0.01 94 1003.1
20260507041404 48 71 3.0 14.0 0.02 0.84 0.00 94 1003.0
20260507040904 48 73 6.0 12.0 0.02 0.84 0.00 94 1003.1
20260507040404 48 80 5.0 12.0 0.03 0.84 0.00 94 1003.1
20260507035904 48 97 2.0 14.0 0.03 0.84 0.84 94 1003.0
20260507035404 48 106 7.0 15.0 0.04 0.84 0.84 94 1002.9
20260507034904 49 91 5.0 14.0 0.04 0.84 0.84 94 1002.8
20260507033904 49 63 3.0 12.0 0.05 0.83 0.83 94 1002.8
20260507033404 49 93 7.0 16.0 0.05 0.83 0.83 94 1002.4
20260507032903 49 79 5.0 13.0 0.05 0.83 0.83 94 1002.8
20260507031904 49 72 6.0 13.0 0.04 0.82 0.82 94 1002.6
20260507030904 50 79 3.0 14.0 0.05 0.82 0.82 95 1002.5
20260507030404 50 110 4.0 13.0 0.04 0.81 0.81 95 1002.4
20260507025404 51 92 4.0 12.0 0.03 0.80 0.80 95 1002.5
20260507024904 51 88 3.0 12.0 0.03 0.80 0.80 95 1002.3
20260507024404 51 88 6.0 13.0 0.02 0.79 0.79 95 1002.3
20260507023904 52 91 7.0 12.0 0.01 0.78 0.78 95 1002.4
20260507022404 53 90 0.0 0.0 0.02 0.78 0.78 96 1002.1
20260507021404 53 90 0.0 0.0 0.02 0.78 0.78 96 1002.0
20260507020904 53 90 0.0 0.0 0.01 0.77 0.77 96 1001.9
20260507020404 53 90 0.0 0.0 0.02 0.77 0.77 96 1001.9
20260507015404 54 90 0.0 0.0 0.03 0.77 0.77 96 1001.9
20260507014904 54 90 0.0 0.0 0.04 0.77 0.77 96 1002.0
20260507014404 54 90 0.0 0.0 0.05 0.77 0.77 96 1001.9
20260507013904 54 90 0.0 0.0 0.06 0.77 0.77 96 1001.8
20260507012904 54 90 0.0 0.0 0.13 0.77 0.77 96 1001.9
20260507012404 54 90 1.0 8.0 0.16 0.76 0.76 96 1001.8
20260507011404 54 90 1.0 8.0 0.18 0.76 0.76 96 1002.0
20260507010904 54 90 3.0 9.0 0.20 0.76 0.76 96 1001.9
20260507010404 55 93 2.0 8.0 0.19 0.75 0.75 96 1001.8
20260507005404 56 101 0.0 0.0 0.20 0.74 0.74 96 1001.8
20260507004904 56 101 0.0 0.0 0.19 0.73 0.73 96 1001.7
20260507004405 56 101 0.0 0.0 0.19 0.72 0.72 96 1001.6
20260507003904 56 101 1.0 8.0 0.19 0.71 0.71 96 1001.6
20260507002404 57 341 1.0 5.0 0.09 0.60 0.60 96 1001.4
20260507001904 57 284 0.0 0.0 0.09 0.59 0.59 96 1001.2
20260507001405 57 284 0.0 0.0 0.08 0.58 0.58 96 1001.0
20260507000904 57 284 0.0 0.0 0.06 0.56 0.56 96 1001.0
20260507000405 57 284 1.0 7.0 0.06 0.56 0.56 96 1001.0
20260506235904 57 284 0.0 0.0 0.05 0.55 0.55 96 1001.0
20260506235404 57 284 0.0 0.0 0.05 0.54 0.54 96 1000.9
20260506234905 57 284 0.0 0.0 0.05 0.54 0.54 96 1000.9
20260506234404 57 284 1.0 9.0 0.04 0.53 0.53 96 1000.9
20260506233904 58 286 3.0 13.0 0.03 0.52 0.52 96 1001.0
20260506233404 58 275 2.0 12.0 0.03 0.52 0.52 96 1001.0
20260506232404 58 275 0.0 0.0 0.02 0.52 0.51 95 1001.1
20260506231904 58 275 1.0 6.0 0.01 0.51 0.50 95 1001.2
20260506231404 58 275 3.0 9.0 0.01 0.51 0.50 95 1001.2
20260506230904 59 275 5.0 10.0 0.01 0.51 0.50 95 1001.2
20260506230404 59 293 0.0 3.0 0.01 0.51 0.50 95 1001.3
20260506224905 59 282 1.0 6.0 0.00 0.51 0.49 95 1001.3
20260506223905 60 282 3.0 10.0 0.01 0.52 0.49 95 1001.5
20260506223404 60 298 0.0 8.0 0.01 0.52 0.49 95 1001.5
20260506222905 60 298 0.0 8.0 0.02 0.52 0.49 94 1001.6
20260506222404 60 298 3.0 9.0 0.03 0.52 0.49 95 1001.7
20260506220904 60 325 0.0 3.0 0.04 0.53 0.49 94 1001.8
20260506220404 60 325 3.0 8.0 0.05 0.56 0.49 95 1001.9
20260506215904 60 325 0.0 3.0 0.05 0.58 0.49 95 1001.9
20260506215404 60 325 1.0 9.0 0.05 0.58 0.49 95 1002.0
20260506214904 60 325 0.0 6.0 0.06 0.58 0.49 96 1002.0
20260506214404 59 326 1.0 5.0 0.05 0.57 0.48 96 1002.0
20260506213904 59 326 2.0 9.0 0.06 0.57 0.48 96 1002.0
20260506213404 59 331 0.0 0.0 0.06 0.57 0.48 96 1002.0
20260506212904 59 331 3.0 10.0 0.05 0.56 0.47 96 1002.1
20260506212404 59 315 4.0 10.0 0.05 0.55 0.46 96 1002.2
20260506211404 59 355 1.0 6.0 0.05 0.54 0.45 96 1002.2
20260506210904 59 355 0.0 0.0 0.05 0.54 0.45 96 1002.2
20260506210403 59 355 0.0 9.0 0.04 0.53 0.44 96 1002.2
20260506205904 59 348 1.0 9.0 0.05 0.53 0.44 96 1002.3
20260506205403 59 322 0.0 0.0 0.05 0.53 0.44 96 1002.1
20260506203904 58 276 0.0 0.0 0.05 0.51 0.42 96 1002.0
20260506202904 58 297 3.0 10.0 0.06 0.51 0.42 96 1001.9
20260506201904 58 269 0.0 0.0 0.05 0.49 0.40 96 1002.0
20260506201404 58 269 0.0 0.0 0.06 0.49 0.40 96 1002.0
20260506200905 58 269 1.0 6.0 0.07 0.49 0.40 96 1002.1
20260506200404 58 269 3.0 9.0 0.08 0.49 0.40 96 1002.3
20260506195904 58 215 0.0 7.0 0.10 0.48 0.39 96 1002.4
20260506195404 58 147 0.0 3.0 0.17 0.48 0.39 96 1002.5
20260506194404 58 93 0.0 0.0 0.30 0.47 0.38 97 1002.6
20260506193904 58 93 0.0 0.0 0.29 0.46 0.37 97 1002.8
20260506193404 58 93 0.0 0.0 0.29 0.45 0.36 97 1002.8
20260506192904 58 93 0.0 0.0 0.30 0.45 0.36 96 1002.8
20260506192404 58 93 0.0 0.0 0.32 0.45 0.36 96 1002.7
20260506191904 58 93 0.0 0.0 0.33 0.44 0.35 96 1002.9
20260506190904 58 93 0.0 0.0 0.32 0.42 0.33 96 1003.3
20260506190403 58 93 0.0 0.0 0.31 0.41 0.32 96 1003.4
20260506185904 58 93 0.0 0.0 0.29 0.38 0.29 95 1003.3
20260506185404 58 93 0.0 7.0 0.22 0.31 0.22 95 1003.2
20260506184904 58 96 3.0 8.0 0.12 0.21 0.12 95 1003.4
20260506184404 58 207 0.0 0.0 0.08 0.17 0.08 95 1003.3
20260506183904 58 207 0.0 0.0 0.08 0.17 0.08 94 1003.4
20260506183404 59 207 0.0 0.0 0.07 0.16 0.07 94 1003.4
20260506182904 59 207 0.0 0.0 0.06 0.15 0.06 94 1003.3
20260506181904 59 207 0.0 0.0 0.02 0.11 0.02 93 1003.3
20260506180904 59 207 0.0 0.0 0.01 0.10 0.01 92 1003.4
20260506175904 59 207 0.0 0.0 0.00 0.09 0.00 91 1003.4
20260506175404 59 207 0.0 0.0 0.00 0.09 0.00 91 1003.5
20260506174904 59 207 0.0 0.0 0.00 0.09 0.00 92 1003.4
20260506174404 59 207 0.0 0.0 0.00 0.09 0.00 89 1003.5
20260506173904 59 207 0.0 0.0 0.00 0.09 0.00 89 1003.6
20260506173404 59 207 2.0 6.0 0.00 0.09 0.00 89 1003.8
20260506172404 59 207 3.0 6.0 0.00 0.09 0.00 89 1003.8
20260506171904 59 207 2.0 6.0 0.00 0.09 0.00 89 1003.9
20260506171404 59 207 1.0 6.0 0.00 0.09 0.00 88 1004.1
20260506170904 59 207 1.0 7.0 0.00 0.09 0.00 88 1004.3
20260506170404 59 207 0.0 7.0 0.00 0.09 0.00 88 1004.3
20260506165404 59 207 0.0 0.0 0.00 0.09 0.00 88 1004.5
20260506164404 59 207 0.0 0.0 0.00 0.09 0.00 87 1004.5
20260506163404 59 207 4.0 8.0 0.00 0.09 0.00 86 1004.8
20260506162904 59 207 5.0 8.0 0.00 0.09 0.00 86 1005.0
20260506161904 59 253 4.0 8.0 0.00 0.09 0.00 86 1005.1
20260506161404 59 253 5.0 8.0 0.00 0.09 0.00 85 1005.3
20260506160905 59 246 6.0 9.0 0.00 0.09 0.00 85 1005.3
20260506160404 59 252 2.0 8.0 0.00 0.09 0.00 85 1005.6
20260506155905 59 261 3.0 9.0 0.00 0.09 0.00 84 1005.7
20260506155404 59 223 3.0 9.0 0.00 0.09 0.00 84 1005.6
20260506154905 59 252 3.0 8.0 0.00 0.09 0.00 85 1005.8
20260506154404 59 252 0.0 0.0 0.00 0.09 0.00 84 1005.8
20260506153905 59 252 0.0 0.0 0.00 0.09 0.00 83 1005.7
20260506153404 59 252 0.0 0.0 0.00 0.09 0.00 83 1005.7
20260506152904 59 252 0.0 0.0 0.00 0.09 0.00 84 1005.6
20260506152404 59 252 0.0 0.0 0.00 0.09 0.00 83 1005.5
20260506151904 59 252 0.0 0.0 0.00 0.09 0.00 83 1005.6
20260506151404 59 252 0.0 7.0 0.00 0.09 0.00 84 1005.6
20260506150904 59 252 0.0 0.0 0.00 0.09 0.00 84 1005.5
20260506150405 58 252 0.0 0.0 0.00 0.09 0.00 84 1005.7
20260506145905 58 252 3.0 5.0 0.00 0.09 0.00 84 1005.7
20260506144904 58 252 4.0 8.0 0.00 0.09 0.00 84 1005.6
20260506144404 58 252 2.0 5.0 0.00 0.09 0.00 83 1005.6
20260506143905 58 252 0.0 8.0 0.00 0.09 0.00 83 1005.7
20260506143404 58 252 1.0 9.0 0.00 0.09 0.00 84 1005.5
20260506142904 58 249 4.0 8.0 0.00 0.09 0.00 84 1005.5
20260506142404 58 250 1.0 8.0 0.00 0.09 0.00 84 1005.4
20260506141905 58 222 2.0 9.0 0.00 0.09 0.00 84 1005.5
20260506141404 58 223 5.0 12.0 0.00 0.09 0.00 83 1005.5
20260506140905 59 208 3.0 7.0 0.00 0.09 0.00 84 1005.7
20260506140404 59 169 1.0 8.0 0.00 0.09 0.00 83 1005.8
20260506135404 58 138 0.0 3.0 0.00 0.09 0.00 83 1005.9
20260506134904 58 137 0.0 7.0 0.00 0.09 0.00 83 1006.0
20260506134404 58 137 0.0 0.0 0.00 0.09 0.00 84 1006.0
20260506133904 58 137 0.0 0.0 0.00 0.09 0.00 84 1005.9
20260506133404 58 137 2.0 7.0 0.00 0.09 0.00 85 1006.0
20260506132904 58 85 0.0 1.0 0.00 0.09 0.00 85 1005.9
20260506131904 57 85 0.0 0.0 0.00 0.09 0.00 86 1005.9
20260506131404 57 85 0.0 0.0 0.00 0.09 0.00 86 1005.9
20260506130904 57 85 0.0 0.0 0.00 0.09 0.00 86 1005.9
20260506130404 57 85 0.0 0.0 0.00 0.09 0.00 87 1006.0
20260506125904 57 85 0.0 0.0 0.00 0.09 0.00 87 1006.2
20260506125404 57 85 0.0 0.0 0.00 0.09 0.00 87 1006.2
20260506124904 57 85 0.0 0.0 0.00 0.09 0.00 87 1006.2
20260506124404 57 85 0.0 0.0 0.00 0.09 0.00 87 1006.3
20260506123904 57 85 0.0 0.0 0.00 0.09 0.00 87 1006.5
20260506122903 57 85 0.0 0.0 0.00 0.09 0.00 87 1006.5
20260506122404 57 85 0.0 0.0 0.00 0.09 0.00 87 1006.6
20260506120904 57 85 0.0 0.0 0.00 0.09 0.00 89 1006.7
20260506120404 57 85 0.0 0.0 0.00 0.09 0.00 89 1006.6
20260506115404 57 85 0.0 0.0 0.00 0.09 0.00 89 1006.7
20260506114905 57 85 0.0 0.0 0.00 0.09 0.00 89 1006.8
20260506114404 57 85 0.0 3.0 0.00 0.09 0.00 89 1006.8
20260506113904 57 85 3.0 5.0 0.00 0.09 0.00 89 1006.5
20260506113404 57 85 2.0 5.0 0.00 0.09 0.00 89 1006.4
20260506112905 57 85 2.0 5.0 0.00 0.09 0.00 90 1006.4
20260506112404 57 81 0.0 0.0 0.00 0.09 0.00 91 1006.6
20260506111904 56 81 0.0 0.0 0.00 0.09 0.00 91 1006.6
20260506110404 56 81 0.0 0.0 0.00 0.09 0.00 92 1006.6
20260506105904 56 81 0.0 0.0 0.00 0.09 0.00 93 1006.6
20260506105404 56 81 0.0 0.0 0.00 0.09 0.00 93 1006.6
20260506104904 55 81 0.0 0.0 0.00 0.09 0.00 93 1006.6
20260506104404 55 81 0.0 0.0 0.00 0.09 0.00 93 1006.7
20260506103404 55 81 0.0 0.0 0.00 0.09 0.00 93 1006.6
20260506102904 55 81 0.0 0.0 0.00 0.09 0.00 93 1006.8
20260506102404 55 81 0.0 0.0 0.00 0.09 0.00 92 1006.6
20260506101904 55 81 0.0 0.0 0.00 0.09 0.00 92 1006.5
20260506101404 55 81 0.0 0.0 0.00 0.09 0.00 91 1006.5
20260506100904 55 81 0.0 0.0 0.00 0.09 0.00 91 1006.5
20260506100404 55 81 0.0 0.0 0.00 0.09 0.00 92 1006.5
20260506095903 54 81 0.0 0.0 0.00 0.09 0.00 92 1006.5
20260506095404 54 81 0.0 0.0 0.00 0.09 0.00 92 1006.5
20260506094904 55 81 0.0 0.0 0.00 0.09 0.00 91 1006.6
20260506094404 55 81 0.0 0.0 0.00 0.09 0.00 90 1006.6
20260506093904 55 81 0.0 0.0 0.00 0.09 0.00 90 1006.6
20260506093404 55 81 0.0 0.0 0.00 0.09 0.00 90 1006.6
20260506092904 55 81 0.0 0.0 0.00 0.09 0.00 90 1006.4
20260506091904 55 81 0.0 0.0 0.00 0.09 0.00 91 1006.4
20260506091404 55 81 0.0 0.0 0.00 0.09 0.00 91 1006.3
20260506090904 55 81 0.0 0.0 0.00 0.09 0.00 91 1006.2
20260506090404 55 81 0.0 0.0 0.00 0.09 0.00 90 1006.2
20260506085904 55 81 0.0 0.0 0.00 0.09 0.00 90 1006.2
20260506085404 56 81 0.0 0.0 0.00 0.09 0.00 91 1006.2
20260506084904 56 81 0.0 0.0 0.00 0.09 0.00 91 1006.2
20260506084404 56 81 0.0 0.0 0.00 0.09 0.00 91 1006.1
20260506083404 56 81 0.0 0.0 0.00 0.09 0.00 92 1006.1
20260506082904 56 81 0.0 0.0 0.00 0.09 0.00 92 1006.2
20260506081904 56 81 0.0 0.0 0.00 0.09 0.00 91 1006.3
20260506081404 56 81 0.0 0.0 0.00 0.09 0.00 91 1006.4
20260506080905 56 81 0.0 0.0 0.00 0.09 0.00 91 1006.5
20260506080403 57 81 0.0 0.0 0.00 0.09 0.00 91 1006.7
20260506073404 57 81 0.0 0.0 0.00 0.09 0.00 91 1006.4
20260506072905 57 81 0.0 8.0 0.00 0.09 0.00 91 1006.5
20260506072404 57 70 0.0 6.0 0.00 0.09 0.00 91 1006.5
20260506071905 57 76 0.0 0.0 0.00 0.09 0.00 91 1006.4
20260506070905 57 76 2.0 8.0 0.00 0.09 0.00 91 1006.2
20260506070405 57 90 1.0 7.0 0.00 0.09 0.00 91 1005.9
20260506062404 59 76 4.0 9.0 0.00 0.09 0.00 89 1005.4
20260506061905 60 336 0.0 0.0 0.00 0.09 0.00 85 1005.2
20260506061405 61 336 0.0 0.0 0.00 0.09 0.00 84 1005.3